VIA003 SVSR-SVMI

Flight info

Callsign VIA003
Flight time 0h 39m
Altitude 25000
Route SFD UL216 MIQ A315 MARES
Aircraft B738/M-SDE2E3FGHIRWXY/LB1

Departure

Time 2026-05-06 16:50
Airport San Fernando de Apure Las Flecheras National Airport (SVSR)

Arrival

Time 2026-05-06 17:29
Airport Maiquetía Simón Bolívar International Airport (SVMI)
Time Latitude Longitude Altitude Speed Heading
2026-05-06 16:31 7.88453 -67.44291 163 ft 0 kts 73°
2026-05-06 16:46 7.88464 -67.44292 163 ft 4 kts 296°
2026-05-06 16:46 7.88448 -67.44323 163 ft 5 kts 236°
2026-05-06 16:46 7.88415 -67.44362 163 ft 9 kts 211°
2026-05-06 16:47 7.88349 -67.44401 163 ft 12 kts 239°
2026-05-06 16:47 7.88362 -67.44498 163 ft 16 kts 292°
2026-05-06 16:47 7.88410 -67.44621 163 ft 20 kts 291°
2026-05-06 16:47 7.88458 -67.44772 163 ft 24 kts 286°
2026-05-06 16:48 7.88505 -67.44930 163 ft 23 kts 286°
2026-05-06 16:48 7.88552 -67.45081 163 ft 21 kts 288°
2026-05-06 16:48 7.88596 -67.45203 163 ft 12 kts 291°
2026-05-06 16:48 7.88592 -67.45223 163 ft 3 kts 134°
2026-05-06 16:49 7.88586 -67.45209 163 ft 0 kts 107°
2026-05-06 16:49 7.88586 -67.45208 163 ft 0 kts 107°
2026-05-06 16:49 7.88514 -67.44969 163 ft 78 kts 107°
2026-05-06 16:49 7.88265 -67.44185 164 ft 152 kts 107°
2026-05-06 16:50 7.87920 -67.43111 754 ft 163 kts 105°
2026-05-06 16:50 7.87609 -67.42170 1970 ft 131 kts 103°
2026-05-06 16:50 7.87658 -67.41229 2390 ft 152 kts 57°
2026-05-06 16:50 7.88195 -67.40756 2777 ft 163 kts 24°
2026-05-06 16:51 7.89782 -67.40694 3642 ft 183 kts 355°
2026-05-06 16:51 7.91062 -67.41092 4277 ft 201 kts 335°
2026-05-06 16:51 7.92196 -67.42013 4860 ft 221 kts 315°
2026-05-06 16:51 7.93290 -67.43178 5399 ft 233 kts 328°
2026-05-06 16:52 7.94817 -67.43727 5880 ft 242 kts
2026-05-06 16:52 7.96467 -67.43333 6480 ft 249 kts 26°
2026-05-06 16:52 7.98151 -67.42664 7059 ft 266 kts 21°
2026-05-06 16:52 7.99995 -67.42187 7638 ft 283 kts 14°
2026-05-06 16:53 8.01981 -67.41867 8440 ft 290 kts 11°
2026-05-06 16:53 8.04001 -67.41606 9249 ft 296 kts 10°
2026-05-06 16:53 8.06080 -67.41341 10132 ft 298 kts 11°
2026-05-06 16:53 8.08170 -67.41061 10759 ft 310 kts 11°
2026-05-06 16:54 8.10359 -67.40753 11309 ft 323 kts 11°
2026-05-06 16:54 8.12636 -67.40427 11849 ft 335 kts 11°
2026-05-06 16:54 8.14967 -67.40095 12668 ft 337 kts 12°
2026-05-06 16:54 8.17327 -67.39760 13455 ft 340 kts 11°
2026-05-06 16:55 8.19670 -67.39425 14201 ft 344 kts 11°
2026-05-06 16:55 8.22067 -67.39082 14960 ft 346 kts 11°
2026-05-06 16:55 8.24468 -67.38741 15687 ft 350 kts 10°
2026-05-06 16:55 8.26917 -67.38391 16417 ft 353 kts
2026-05-06 16:56 8.29376 -67.38039 17101 ft 356 kts
2026-05-06 16:56 8.31853 -67.37685 17775 ft 360 kts
2026-05-06 16:56 8.34381 -67.37324 18400 ft 364 kts
2026-05-06 16:56 8.36899 -67.36966 19005 ft 368 kts
2026-05-06 16:57 8.39472 -67.36610 19594 ft 372 kts
2026-05-06 16:57 8.42072 -67.36256 20144 ft 378 kts
2026-05-06 16:57 8.44714 -67.35897 20685 ft 382 kts
2026-05-06 16:57 8.47393 -67.35532 21178 ft 388 kts
2026-05-06 16:58 8.50108 -67.35162 21700 ft 393 kts
2026-05-06 16:58 8.52855 -67.34786 22217 ft 397 kts
2026-05-06 16:58 8.55634 -67.34407 22757 ft 400 kts
2026-05-06 16:58 8.58400 -67.34029 23276 ft 404 kts
2026-05-06 16:59 8.61214 -67.33643 23798 ft 406 kts
2026-05-06 16:59 8.64038 -67.33255 24281 ft 410 kts
2026-05-06 16:59 8.66881 -67.32865 24787 ft 412 kts
2026-05-06 16:59 8.69775 -67.32469 24907 ft 417 kts
2026-05-06 17:00 8.72641 -67.32076 24930 ft 414 kts
2026-05-06 17:00 8.75548 -67.31676 24936 ft 412 kts
2026-05-06 17:00 8.78389 -67.31284 24941 ft 413 kts
2026-05-06 17:00 8.81260 -67.30889 24941 ft 414 kts
2026-05-06 17:01 8.84158 -67.30490 24943 ft 414 kts
2026-05-06 17:01 8.86999 -67.30100 24945 ft 414 kts
2026-05-06 17:01 8.89878 -67.29703 24947 ft 414 kts
2026-05-06 17:01 8.92755 -67.29307 24948 ft 414 kts
2026-05-06 17:02 8.95635 -67.28911 24947 ft 414 kts
2026-05-06 17:02 8.98529 -67.28513 24950 ft 414 kts
2026-05-06 17:02 9.01380 -67.28120 24950 ft 414 kts
2026-05-06 17:02 9.04258 -67.27725 24950 ft 413 kts
2026-05-06 17:03 9.07154 -67.27328 24951 ft 413 kts
2026-05-06 17:03 9.09992 -67.26938 24953 ft 412 kts
2026-05-06 17:03 9.12856 -67.26544 24956 ft 412 kts
2026-05-06 17:03 9.15741 -67.26147 24959 ft 413 kts
2026-05-06 17:04 9.18585 -67.25755 24958 ft 412 kts
2026-05-06 17:04 9.21462 -67.25359 24961 ft 412 kts
2026-05-06 17:04 9.24358 -67.24960 24963 ft 412 kts
2026-05-06 17:04 9.27234 -67.24565 24967 ft 413 kts
2026-05-06 17:05 9.30074 -67.24174 24967 ft 412 kts
2026-05-06 17:05 9.32939 -67.23779 24968 ft 412 kts
2026-05-06 17:05 9.35809 -67.23383 24966 ft 413 kts
2026-05-06 17:05 9.38709 -67.22984 24968 ft 412 kts
2026-05-06 17:06 9.41552 -67.22591 24973 ft 412 kts
2026-05-06 17:06 9.44418 -67.22196 24976 ft 412 kts
2026-05-06 17:06 9.47290 -67.21800 24972 ft 412 kts
2026-05-06 17:06 9.50149 -67.21406 24973 ft 412 kts
2026-05-06 17:07 9.53009 -67.21011 24976 ft 412 kts
2026-05-06 17:07 9.55859 -67.20618 24979 ft 411 kts
2026-05-06 17:07 9.58722 -67.20223 24985 ft 411 kts
2026-05-06 17:07 9.61549 -67.19833 24988 ft 412 kts
2026-05-06 17:08 9.64442 -67.19435 24993 ft 412 kts
2026-05-06 17:08 9.67324 -67.19037 24997 ft 412 kts
2026-05-06 17:08 9.70194 -67.18642 25001 ft 412 kts
2026-05-06 17:08 9.73053 -67.18247 25006 ft 412 kts
2026-05-06 17:09 9.75895 -67.17854 25013 ft 412 kts
2026-05-06 17:09 9.78757 -67.17458 25023 ft 412 kts
2026-05-06 17:09 9.81615 -67.17065 25029 ft 413 kts
2026-05-06 17:09 9.84509 -67.16667 25036 ft 412 kts
2026-05-06 17:10 9.87361 -67.16275 25043 ft 411 kts
2026-05-06 17:10 9.90193 -67.15884 25051 ft 411 kts
2026-05-06 17:10 9.93043 -67.15491 25060 ft 411 kts
2026-05-06 17:10 9.95903 -67.15084 24906 ft 406 kts
2026-05-06 17:11 9.98659 -67.14557 24563 ft 400 kts 11°
2026-05-06 17:11 10.01361 -67.13911 24280 ft 395 kts 13°
2026-05-06 17:11 10.04089 -67.13203 23854 ft 403 kts 14°
2026-05-06 17:11 10.06828 -67.12477 23302 ft 404 kts 14°
2026-05-06 17:12 10.09564 -67.11755 22730 ft 403 kts 14°
2026-05-06 17:12 10.12268 -67.11050 22166 ft 402 kts 14°
2026-05-06 17:12 10.14985 -67.10349 21601 ft 400 kts 14°
2026-05-06 17:12 10.17713 -67.09652 21016 ft 399 kts 14°
2026-05-06 17:13 10.20393 -67.08972 20392 ft 388 kts 14°
2026-05-06 17:13 10.22973 -67.08321 19816 ft 376 kts 14°
2026-05-06 17:13 10.25506 -67.07684 19215 ft 365 kts 15°
2026-05-06 17:13 10.27944 -67.07071 18633 ft 355 kts 15°
2026-05-06 17:14 10.30294 -67.06480 18068 ft 345 kts 15°
2026-05-06 17:14 10.32619 -67.05894 17506 ft 335 kts 16°
2026-05-06 17:14 10.34842 -67.05334 16930 ft 327 kts 16°
2026-05-06 17:14 10.37037 -67.04782 16345 ft 319 kts 17°
2026-05-06 17:15 10.39179 -67.04245 15771 ft 313 kts 17°
2026-05-06 17:15 10.41294 -67.03725 15223 ft 306 kts 17°
2026-05-06 17:15 10.43328 -67.03236 14861 ft 295 kts 17°
2026-05-06 17:15 10.45341 -67.02754 14506 ft 293 kts 17°
2026-05-06 17:16 10.47342 -67.02269 14156 ft 295 kts 18°
2026-05-06 17:16 10.49363 -67.01778 13801 ft 294 kts 18°
2026-05-06 17:16 10.51361 -67.01292 13440 ft 294 kts 18°
2026-05-06 17:16 10.53348 -67.00813 13069 ft 291 kts 18°
2026-05-06 17:17 10.55322 -67.00337 12539 ft 290 kts 18°
2026-05-06 17:17 10.57311 -66.99860 11957 ft 291 kts 16°
2026-05-06 17:17 10.59334 -66.99618 11386 ft 295 kts
2026-05-06 17:17 10.61350 -67.00129 10834 ft 302 kts 334°
2026-05-06 17:18 10.63015 -67.01452 10313 ft 305 kts 312°
2026-05-06 17:18 10.64335 -67.03134 9848 ft 303 kts 309°
2026-05-06 17:18 10.65647 -67.04812 9342 ft 301 kts 310°
2026-05-06 17:18 10.66981 -67.06471 8866 ft 298 kts 310°
2026-05-06 17:19 10.68277 -67.08068 8422 ft 294 kts 310°
2026-05-06 17:19 10.69588 -67.09684 7955 ft 292 kts 310°
2026-05-06 17:19 10.70866 -67.11264 7595 ft 289 kts 310°
2026-05-06 17:19 10.72160 -67.12869 7212 ft 289 kts 310°
2026-05-06 17:20 10.73436 -67.14457 6870 ft 287 kts 310°
2026-05-06 17:20 10.74690 -67.16018 6549 ft 285 kts 308°
2026-05-06 17:20 10.75800 -67.17699 6200 ft 283 kts 295°
2026-05-06 17:20 10.76283 -67.19619 5837 ft 279 kts 266°
2026-05-06 17:21 10.75799 -67.21497 5494 ft 271 kts 238°
2026-05-06 17:21 10.74636 -67.22968 5096 ft 267 kts 219°
2026-05-06 17:21 10.73103 -67.24035 4743 ft 264 kts 205°
2026-05-06 17:21 10.71429 -67.24803 4417 ft 262 kts 200°
2026-05-06 17:22 10.69721 -67.25492 4073 ft 261 kts 199°
2026-05-06 17:22 10.68051 -67.26175 3961 ft 259 kts 200°
2026-05-06 17:22 10.66350 -67.26894 3961 ft 261 kts 199°
2026-05-06 17:22 10.64667 -67.27425 3952 ft 245 kts 186°
2026-05-06 17:23 10.63030 -67.27305 3979 ft 223 kts 160°
2026-05-06 17:23 10.61653 -67.26744 3991 ft 206 kts 152°
2026-05-06 17:23 10.60544 -67.25918 3974 ft 188 kts 125°
2026-05-06 17:23 10.59993 -67.24721 3989 ft 188 kts 105°
2026-05-06 17:24 10.59758 -67.23398 3989 ft 188 kts 96°
2026-05-06 17:24 10.59712 -67.22106 3998 ft 174 kts 91°
2026-05-06 17:24 10.59738 -67.20924 3993 ft 166 kts 89°
2026-05-06 17:24 10.59773 -67.19717 3738 ft 170 kts 89°
2026-05-06 17:25 10.59812 -67.18521 3475 ft 166 kts 89°
2026-05-06 17:25 10.59850 -67.17362 3274 ft 164 kts 89°
2026-05-06 17:25 10.59885 -67.16243 3096 ft 153 kts 89°
2026-05-06 17:25 10.59921 -67.15155 2842 ft 149 kts 89°
2026-05-06 17:26 10.59954 -67.14128 2679 ft 148 kts 89°
2026-05-06 17:26 10.59990 -67.13061 2485 ft 149 kts 89°
2026-05-06 17:26 10.60024 -67.12024 2294 ft 144 kts 88°
2026-05-06 17:26 10.60057 -67.10999 2132 ft 146 kts 88°
2026-05-06 17:27 10.60091 -67.09969 1908 ft 143 kts 89°
2026-05-06 17:27 10.60123 -67.08963 1734 ft 142 kts 88°
2026-05-06 17:27 10.60157 -67.07956 1564 ft 143 kts 88°
2026-05-06 17:27 10.60191 -67.06936 1363 ft 143 kts 88°
2026-05-06 17:28 10.60224 -67.05919 1187 ft 145 kts 88°
2026-05-06 17:28 10.60261 -67.04885 996 ft 145 kts 88°
2026-05-06 17:28 10.60241 -67.03859 764 ft 145 kts 92°
2026-05-06 17:28 10.60192 -67.02833 613 ft 146 kts 91°
2026-05-06 17:29 10.60201 -67.01770 423 ft 153 kts 88°
2026-05-06 17:29 10.60232 -67.00678 330 ft 153 kts 88°
2026-05-06 17:29 10.60265 -66.99636 298 ft 124 kts 88°
2026-05-06 17:29 10.60290 -66.99070 272 ft 48 kts 88°
2026-05-06 17:30 10.60310 -66.98882 261 ft 16 kts 75°
2026-05-06 17:30 10.60280 -66.98898 262 ft 7 kts 266°
2026-05-06 17:30 10.60277 -66.98947 265 ft 9 kts 266°
2026-05-06 17:30 10.60274 -66.99049 271 ft 17 kts 268°
2026-05-06 17:31 10.60271 -66.99191 277 ft 22 kts 269°
2026-05-06 17:31 10.60266 -66.99360 285 ft 24 kts 268°
2026-05-06 17:31 10.60264 -66.99541 294 ft 26 kts 269°
2026-05-06 17:31 10.60258 -66.99739 301 ft 29 kts 269°
2026-05-06 17:32 10.60245 -66.99920 308 ft 12 kts 229°
2026-05-06 17:32 10.60151 -66.99930 311 ft 13 kts 214°
2026-05-06 17:32 10.60102 -66.99981 313 ft 4 kts 190°
2026-05-06 17:32 10.60074 -66.99982 314 ft 0 kts 178°